EST,Max TemperatureF,Mean TemperatureF,Min TemperatureF,Max Dew PointF,MeanDew PointF,Min DewpointF,Max Humidity, Mean Humidity, Min Humidity, Max Sea Level PressureIn, Mean Sea Level PressureIn, Min Sea Level PressureIn, Max VisibilityMiles, Mean VisibilityMiles, Min VisibilityMiles, Max Wind SpeedMPH, Mean Wind SpeedMPH, Max Gust SpeedMPH,PrecipitationIn, CloudCover, Events, WindDirDegrees
2012-12-1,36,28,19,34,25,10,92,80,67,30.38,30.11,29.83,10,5,1,17,9,24,0.13,8,Rain,103
2012-12-2,41,38,34,39,37,33,100,93,85,30.09,29.90,29.78,10,4,0,10,4,13,0.07,8,Fog-Rain,277
2012-12-3,52,42,32,50,38,30,100,95,89,30.09,29.89,29.58,5,2,0,17,8,24,0.37,6,Fog-Rain-Thunderstorm,126
2012-12-4,55,41,27,52,29,18,96,80,63,30.07,29.89,29.63,10,7,1,24,13,36,0.06,6,Rain-Snow,286
2012-12-5,29,24,19,20,15,8,74,60,46,30.43,30.29,30.11,10,8,1,17,6,26,0.04,4,Snow,344
2012-12-6,35,30,25,32,26,19,89,78,66,30.27,29.97,29.78,10,6,0,16,9,23,0.15,7,Fog-Rain-Snow,140
2012-12-7,35,32,29,33,26,20,92,78,63,29.99,29.89,29.78,10,10,6,15,8,23,0.00,8,,298
2012-12-8,30,28,25,22,20,17,88,76,63,30.22,30.04,29.96,10,9,2,8,3,10,T,8,Snow,36
2012-12-9,26,23,20,19,17,15,88,78,68,30.29,30.06,29.83,10,5,1,14,7,20,0.21,8,Snow,75
2012-12-10,23,17,10,15,10,4,84,71,57,29.93,29.75,29.67,10,6,2,14,7,22,0.04,5,Snow,27
2012-12-11,29,19,8,25,18,4,92,84,75,29.97,29.89,29.82,10,6,0,17,8,24,0.28,7,Fog-Snow,133
2012-12-12,33,23,13,26,14,7,81,71,60,30.24,30.14,29.91,10,10,10,15,8,18,T,3,,189
2012-12-13,42,37,32,32,30,26,82,73,64,30.14,30.05,29.98,10,10,9,17,9,22,T,6,Rain,210
2012-12-14,35,28,20,28,21,14,82,76,69,30.30,30.21,30.06,10,10,9,20,7,28,T,6,,331
2012-12-15,34,28,21,30,24,15,92,82,71,30.27,29.98,29.71,10,6,1,17,13,26,0.16,8,Snow,102
2012-12-16,34,33,32,32,30,28,96,89,82,29.70,29.59,29.53,10,4,0,16,7,25,0.06,8,Fog-Rain-Snow,94
2012-12-17,36,35,33,33,32,30,100,91,82,29.67,29.61,29.55,10,6,0,14,6,18,0.12,8,Fog-Rain-Snow,248
2012-12-18,37,34,31,31,30,27,96,83,70,29.77,29.70,29.65,10,9,2,6,1,7,0.03,8,Rain-Snow,288
2012-12-19,37,33,28,29,26,22,92,76,59,30.11,29.94,29.77,10,10,7,8,2,11,T,7,Rain,81
2012-12-20,30,28,25,27,24,19,92,81,69,30.10,29.74,29.38,10,4,0,17,11,27,1.14,8,Fog-Snow,72
2012-12-21,29,26,22,19,17,13,84,74,63,29.89,29.61,29.39,10,6,1,23,15,35,0.21,6,Snow,350
2012-12-22,28,25,22,21,17,13,81,75,68,29.96,29.90,29.80,10,10,5,25,13,35,T,7,Snow,301
2012-12-23,29,23,17,21,16,9,84,74,63,29.95,29.87,29.76,10,5,1,24,11,32,0.05,8,Snow,306
2012-12-24,28,26,23,21,19,16,81,72,63,30.06,29.96,29.91,10,8,2,18,8,27,0.01,8,Snow,261
2012-12-25,26,23,19,19,14,10,74,68,62,30.40,30.25,30.03,10,9,2,10,4,16,T,8,Snow,26
2012-12-26,26,21,16,15,11,6,71,64,57,30.39,30.30,30.17,10,10,10,14,7,17,T,4,,55
2012-12-27,25,18,11,8,5,3,67,56,45,30.21,30.17,30.13,10,10,10,10,6,13,0.00,1,,358
2012-12-28,18,12,6,12,5,1,92,77,61,30.18,30.12,30.01,10,10,8,8,3,12,T,4,,81
2012-12-29,25,17,9,14,8,4,83,69,55,30.02,29.97,29.91,10,10,10,14,5,17,0.00,6,,38
2012-12-30,28,21,13,22,14,7,88,73,57,30.14,30.07,29.95,10,10,2,14,5,18,0.01,7,Snow,165
2012-12-31,31,26,21,26,16,-1,85,70,55,30.04,29.85,29.74,10,5,0,24,13,37,0.01,8,Snow,293